[Iaude] MPEC N14: 2024 MY1 [a=1.42,e=0.25,i=13.4,H=25.3]
    mpec at cfa.harvard.edu 
    mpec at cfa.harvard.edu
       
    Tue Jul  2 07:53:31 EDT 2024
    
    
  
M.P.E.C. 2024-N14                                  Issued 2024 July 2, 11:51 UT
     The Minor Planet Electronic Circulars contain information on unusual
         minor planets, routine data on comets and natural satellites,
         and occasional editorial announcements.  They are published
    on behalf of Division F of the International Astronomical Union by the
          Minor Planet Center, Smithsonian Astrophysical Observatory,
                          Cambridge, MA 02138, U.S.A.
			  
             Prepared using the Tamkin Foundation Computer Network
                              MPC at CFA.HARVARD.EDU
            URL https://www.minorplanetcenter.net/    ISSN 1523-6714
                                    2024 MY1                                    
Observations:
     K24M01Y  C2024 06 27.32885215 25 53.275-17 19 56.66         20.43GVEN014F51
     K24M01Y  C2024 06 27.33987115 25 57.937-17 17 35.43         20.80GVEN014F51
     K24M01Y  C2024 06 27.35086815 26 02.603-17 15 14.32         20.68GVEN014F51
     K24M01Y  C2024 06 28.32228715 33 46.247-13 47 12.70         20.80GVEN014F51
     K24M01Y  C2024 06 30.33744715 49 22.424-06 32 57.85               VEN014F51
     K24M01Y* C2024 06 30.34962715 49 27.334-06 30 21.34         20.65wXEN014F51
     K24M01Y  C2024 06 30.36156915 49 32.165-06 27 48.11         21.21wXEN014F51
     K24M01Y  C2024 06 30.46741215 50 15.773-06 05 07.06         20.89GVEN014F51
     K24M01Y  C2024 06 30.46780515 50 15.933-06 05 01.80               VEN014F51
     K24M01Y KC2024 07 01.11222315 55 15.37 -03 49 08.9          21.3 GVEN014H21
     K24M01Y KC2024 07 01.12051815 55 18.74 -03 47 24.2          21.2 GVEN014H21
     K24M01Y KC2024 07 01.12564515 55 20.82 -03 46 20.0          21.2 GVEN014H21
     K24M01Y  C2024 07 01.33675315 56 54.447-03 01 25.71         20.74GVEN014F51
     K24M01Y  C2024 07 01.33757115 56 54.787-03 01 15.05         20.78GVEN014F51
     K24M01Y |C2024 07 02.06493016 02 19.670-00 28 49.00         20.8 GVEN014807
     K24M01Y |C2024 07 02.07073716 02 21.890-00 27 37.40         20.7 GVEN014807
     K24M01Y |C2024 07 02.07631016 02 24.090-00 26 29.70         20.8 GVEN014807
Observer details:
807 Cerro Tololo Observatory, La Serena.  Observers T. Linder, R. Holmes.
    0.61-m f/6.8 Ritchey-Chretien + CCD.
F51 Pan-STARRS 1, Haleakala.  Observers J. Herman, T. Lowe, P. Minguez, A.
    Schultz, I. Smith.  Measurers K. Chambers, T. de Boer, J. Fairlamb, H.
    Gao, M. Huber, C.-C. Lin, E. Magnier, Y. Ramanjooloo, R. Wainscoat, R.
    Weryk.  1.8-m Ritchey-Chretien + CCD.
H21 Astronomical Research Observatory, Westfield.  Observer R. Holmes.
    Measurers T. Linder, R. Holmes, L. Horn.  0.76-m f/3.0 astrograph + CCD.
Orbital elements:
2024 MY1                                                 Earth MOID = 0.0479 AU
Epoch 2024 Mar. 31.0 TT = JDT 2460400.5                 Veres                   
M 304.77842              (2000.0)            P               Q                  
n   0.58337041     Peri.    6.71668     +0.16845715     +0.95813348             
a   1.4185341      Node   273.16651     -0.91481573     +0.06450289             
e   0.2504835      Incl.   13.40755     -0.36706181     +0.27896168             
P   1.69           H   25.30          G   0.15           U   8                  
Residuals in seconds of arc
240627 F51  0.2-  0.4-    240630 F51  0.3+  0.2-    240701 F51  0.0   0.3-
240627 F51  0.1-  0.0     240630 F51  0.5+  0.3-    240701 F51  0.3+  0.1+
240627 F51  0.0   0.4+    240630 F51  0.4+  0.1-    240702 807  0.3+  0.1+
240628 F51  0.0   0.2+    240701 H21  0.1-  0.2+    240702 807  0.5-  0.5+
240630 F51  0.1+  0.1-    240701 H21  0.0   0.2+    240702 807  0.3-  0.2-
240630 F51  0.1+  0.0     240701 H21  0.1+  0.3-
Ephemeris:
2024 MY1                 a,e,i = 1.42, 0.25, 13                  q = 1.0632
Date    TT    R. A. (2000) Decl.     Delta      r    Elong.  Phase     V
2024 06 02    12 35 23.7 -60 43 11   0.1367  1.0949   123.2    50.8    23.1
...
2024 06 17    14 02 59.9 -45 43 31   0.08337 1.0722   130.8    45.9    21.8
...
2024 06 25    15 07 06.9 -25 16 51   0.06577 1.0656   137.2    40.4    21.1
...
2024 07 01    15 54 23.6 -04 11 23   0.06404 1.0634   135.7    41.9    21.1
2024 07 02    16 01 49.6 -00 43 22   0.06489 1.0633   134.6    42.9    21.2
2024 07 03    16 09 05.7 +02 37 36   0.06605 1.0632   133.4    44.0    21.2
...
2024 07 09    16 48 54.8 +19 10 09   0.07840 1.0641   125.5    51.1    21.8
...
2024 07 17    17 31 48.1 +31 52 37   0.1038  1.0690   118.0    57.1    22.6
...
2024 08 01    18 27 58.4 +40 27 54   0.1607  1.0887   113.4    58.9    23.6
M. P. C. Staff               (C) Copyright 2024 MPC           M.P.E.C. 2024-N14
    
    
More information about the Iaude
mailing list